EW3511 Weather Reports


time (UTC)temp
C
wind
direction
speed
KPH
gust
KPH
rain 1hr
cm
rain 24hr
cm
rain mn
cm
humidity
%
barometer
mb
20260504194614 16 132 1.6 3.2 0.00 0.00 0.00 65 1009.9
20260504193554 17 164 3.2 4.8 0.00 0.00 0.00 64 1009.9
20260504192554 17 74 1.6 4.8 0.00 0.00 0.00 62 1009.8
20260504191615 17 85 0.0 1.6 0.00 0.00 0.00 63 1009.8
20260504190614 18 0.0 0.0 0.00 0.00 0.00 60 1009.9
20260504185556 18 53 1.6 3.2 0.00 0.00 0.00 56 1009.7
20260504184556 19 53 1.6 4.8 0.00 0.00 0.00 55 1009.7
20260504183614 19 98 0.0 1.6 0.00 0.00 0.00 55 1009.5
20260504182618 20 85 0.0 1.6 0.00 0.00 0.00 53 1009.6
20260504181557 20 78 0.0 3.2 0.00 0.00 0.00 52 1009.5
20260504180634 21 67 0.0 3.2 0.00 0.00 0.00 52 1009.5
20260504175558 21 53 1.6 4.8 0.00 0.00 0.00 50 1009.5
20260504174639 21 23 1.6 4.8 0.00 0.00 0.00 49 1009.4
20260504173614 22 46 3.2 9.7 0.00 0.00 0.00 49 1009.4
20260504172559 22 46 1.6 8.0 0.00 0.00 0.00 48 1009.4
20260504171600 22 27 3.2 8.0 0.00 0.00 0.00 47 1009.3
20260504170614 22 35 3.2 8.0 0.00 0.00 0.00 46 1009.4
20260504150553 23 69 1.6 3.2 0.00 0.00 0.00 43 1009.7
20260504140536 24 70 4.8 11.3 0.00 0.00 0.00 42 1009.9
20260504130559 25 111 4.8 11.3 0.00 0.00 0.00 41 1010.6
20260504110544 22 68 3.2 9.7 0.00 0.00 0.00 45 1012.1
20260504100605 21 78 3.2 11.3 0.00 0.00 0.00 49 1013.1
20260504081059 20 95 3.2 8.0 0.00 0.00 0.00 48 1014.3
20260504070132 18 56 0.0 4.8 0.00 0.00 0.00 51 1014.5
20260504050118 12 0.0 0.0 0.00 0.00 0.00 73 1014.5
20260504045059 13 0.0 1.6 0.00 0.00 0.00 72 1014.7
20260504044121 12 0.0 0.0 0.00 0.00 0.00 72 1014.5
20260504043119 12 119 0.0 1.6 0.00 0.00 0.00 74 1014.5
20260504042100 11 0.0 0.0 0.00 0.00 0.00 78 1014.5
20260504041032 10 0.0 0.0 0.00 0.00 0.00 79 1014.4
20260504040033 11 0.0 0.0 0.00 0.00 0.00 78 1014.5
20260504035033 11 0.0 0.0 0.00 0.00 0.00 76 1014.5
20260504034034 12 0.0 0.0 0.00 0.00 0.00 74 1014.6
20260504033034 12 0.0 0.0 0.00 0.00 0.00 73 1014.6
20260504032037 12 0.0 0.0 0.00 0.00 0.00 72 1014.5
20260504031035 12 0.0 0.0 0.00 0.00 0.00 71 1014.6
20260504030035 13 0.0 0.0 0.00 0.00 0.00 70 1014.6
20260504025036 13 144 0.0 1.6 0.00 0.00 0.00 68 1014.6
20260504024037 13 131 0.0 1.6 0.00 0.00 0.00 69 1014.7
20260504023036 13 119 0.0 1.6 0.00 0.00 0.00 68 1014.7
20260504022037 13 113 0.0 3.2 0.00 0.00 0.00 67 1014.9
20260504021037 14 173 0.0 3.2 0.00 0.00 0.00 66 1014.7
20260504020038 14 154 1.6 8.0 0.00 0.00 0.00 66 1014.7
20260504015039 14 154 1.6 3.2 0.00 0.00 0.00 67 1014.8
20260504014038 15 108 0.0 3.2 0.00 0.00 0.00 67 1014.8
20260504013039 15 221 1.6 9.7 0.00 0.00 0.00 67 1014.6
20260504012040 15 122 1.6 4.8 0.00 0.00 0.00 67 1014.6
20260504011040 15 135 1.6 4.8 0.00 0.00 0.00 65 1014.6
20260504010040 15 114 1.6 3.2 0.00 0.00 0.00 64 1014.4
20260504005041 15 128 1.6 12.9 0.00 0.00 0.00 64 1014.4
20260504004101 15 141 3.2 11.3 0.00 0.00 0.00 65 1014.3
20260504003042 16 97 1.6 9.7 0.00 0.00 0.00 65 1014.3
20260504002042 16 88 1.6 3.2 0.00 0.00 0.00 64 1014.1
20260504001042 16 122 3.2 8.0 0.00 0.00 0.00 63 1014.0
20260504000044 16 131 1.6 14.5 0.00 0.00 0.00 62 1013.9
20260503235043 16 218 3.2 14.5 0.00 0.00 0.00 61 1013.8
20260503234044 16 131 1.6 3.2 0.00 0.00 0.00 60 1013.8
20260503233044 16 154 3.2 9.7 0.00 0.00 0.00 59 1013.6
20260503232045 16 200 3.2 8.0 0.00 0.00 0.00 58 1013.5
20260503231045 15 208 1.6 11.3 0.00 0.00 0.00 59 1013.3
20260503230045 15 142 0.0 1.6 0.00 0.00 0.00 60 1013.2
20260503225045 15 115 0.0 1.6 0.00 0.00 0.00 60 1013.1
20260503224047 15 0.0 0.0 0.00 0.00 0.00 59 1013.1
20260503223127 15 0.0 0.0 0.00 0.00 0.00 59 1013.0
20260503222048 15 93 0.0 1.6 0.00 0.00 0.00 59 1012.9
20260503221109 15 56 0.0 1.6 0.00 0.00 0.00 59 1012.8
20260503220048 15 93 0.0 1.6 0.00 0.00 0.00 60 1012.7
20260503215108 15 0.0 0.0 0.00 0.00 0.00 61 1012.8
20260503214048 16 0.0 0.0 0.00 0.00 0.00 58 1012.5
20260503213049 16 120 0.0 8.0 0.00 0.00 0.00 56 1012.2
20260503212130 15 332 0.0 3.2 0.00 0.00 0.00 59 1012.2
20260503211049 15 0.0 0.0 0.00 0.00 0.00 59 1012.1
20260503210051 16 0.0 0.0 0.00 0.00 0.00 57 1012.1
20260503205050 16 0.0 0.0 0.00 0.00 0.00 56 1012.0
20260503204111 16 0.0 0.0 0.00 0.00 0.00 55 1012.0
20260503203052 17 0.0 0.0 0.00 0.00 0.00 54 1011.8
20260503202053 17 0.0 0.0 0.00 0.00 0.00 53 1011.9
20260503201112 17 0.0 1.6 0.00 0.00 0.00 53 1011.8
20260503200113 17 155 0.0 1.6 0.00 0.00 0.00 54 1011.7